Weather History for La Junta, CO

Change the Weather History Date:

Thursday, November 29, 2012

  Actual Average Record
Temperature  
Mean Temperature 45 °F 34 °F  
Max Temperature 69 °F 48 °F 72 °F (1945)
Min Temperature 21 °F 21 °F -3 °F (1976)
Degree Days  
Heating Degree Days 20 31  
Month to date heating degree days 546 691  
Since 1 July heating degree days 943 1113  
Cooling Degree Days 0 0  
Month to date cooling degree days 0 0  
Year to date cooling degree days 1733 1226  
Moisture  
Dew Point 7 °F    
Average Humidity 26    
Maximum Humidity 45    
Minimum Humidity 7    
Precipitation  
Precipitation 0.00 in 0.01 in 0.12 in (1991)
Month to date precipitation T 0.37  
Year to date precipitation 5.52 11.19  
Sea Level Pressure  
Sea Level Pressure 29.98 in    
Wind  
Wind Speed 7 mph (West)    
Max Wind Speed 18 mph    
Max Gust Speed 20 mph    
Visibility 10 miles    
Events      
T = Trace of Precipitation, MM = Missing Value Source: NWS Daily Summary

Daily Weather History Graph

Daily Weather History Graph

Search for Another Location

Airport:

Trip Planner

Search our weather history database for the weather conditions in past years. The results will help you decide how hot, cold, wet, or windy it might be!

Date:

Astronomy

Nov. 29, 2012 Rise Set
Actual Time 6:49 AM MST 4:35 PM MST
Civil Twilight 6:21 AM MST 5:03 PM MST
Nautical Twilight 5:48 AM MST 5:36 PM MST
Astronomical Twilight 5:16 AM MST 6:08 PM MST
Moon 5:39 PM MST (11/29) 7:38 AM MST (11/29)
Length of Visible Light 10h 42m
Length of Day
9h 45m
Full, 99% of the Moon is Illuminated
Nov 29
Full
Dec 6
Last Quarter
Dec 13
New
Dec 19
First Quarter
Dec 28
Full

Hourly Weather History & Observations

Time (MST) Temp. Windchill Dew Point Humidity Pressure Visibility Wind Dir Wind Speed Gust Speed Precip Events Conditions
12:53 AM 28.0 °F 17.0 °F 3.9 °F 36% 30.03 in 10.0 mi West 13.8 mph - N/A   Clear
1:53 AM 30.0 °F - 3.9 °F 33% 30.00 in 10.0 mi Calm Calm - N/A   Clear
2:53 AM 34.0 °F 23.4 °F 3.9 °F 28% 29.96 in 10.0 mi WSW 17.3 mph - N/A   Clear
3:53 AM 28.9 °F 19.2 °F 3.9 °F 35% 29.99 in 10.0 mi West 11.5 mph - N/A   Clear
5:53 AM 21.0 °F 16.2 °F 3.0 °F 46% 30.06 in 10.0 mi North 3.5 mph - N/A   Clear
6:53 AM 25.0 °F 15.5 °F 3.9 °F 41% 30.05 in 10.0 mi NW 9.2 mph - N/A   Clear
7:53 AM 32.0 °F 25.6 °F 6.1 °F 34% 30.05 in 10.0 mi WNW 6.9 mph - N/A   Clear
8:53 AM 42.1 °F 37.1 °F 9.0 °F 26% 30.03 in 10.0 mi West 8.1 mph - N/A   Clear
9:53 AM 51.1 °F - 10.0 °F 19% 30.02 in 10.0 mi NW 9.2 mph - N/A   Clear
10:53 AM 59.0 °F - 14.0 °F 17% 29.99 in 10.0 mi WNW 9.2 mph - N/A   Clear
11:53 AM 63.0 °F - 16.0 °F 16% 29.96 in 10.0 mi WNW 8.1 mph - N/A   Clear
12:53 PM 66.9 °F - 12.0 °F 12% 29.93 in 10.0 mi WNW 5.8 mph - N/A   Clear
1:53 PM 68.0 °F - 3.0 °F 8% 29.91 in 10.0 mi NW 5.8 mph - N/A   Clear
2:53 PM 68.0 °F - 1.0 °F 7% 29.89 in 10.0 mi ENE 3.5 mph - N/A   Clear
3:53 PM 64.0 °F - 3.0 °F 9% 29.92 in 10.0 mi East 3.5 mph - N/A   Clear
4:53 PM 57.0 °F - 3.9 °F 12% 29.94 in 10.0 mi ESE 5.8 mph - N/A   Clear
5:53 PM 53.1 °F - 6.1 °F 15% 30.00 in 10.0 mi SE 6.9 mph - N/A   Clear
6:53 PM 52.0 °F - 6.1 °F 16% 30.00 in 10.0 mi SSE 5.8 mph - N/A   Clear
7:53 PM 51.1 °F - 5.0 °F 15% 29.99 in 10.0 mi SE 5.8 mph - N/A   Clear
8:53 PM 41.0 °F - 5.0 °F 23% 30.00 in 10.0 mi Calm Calm - N/A   Clear
9:53 PM 46.0 °F - 12.0 °F 25% 29.97 in 10.0 mi Calm Calm - N/A   Clear
10:53 PM 42.1 °F 39.2 °F 10.0 °F 27% 29.96 in 10.0 mi SW 4.6 mph - N/A   Clear
11:53 PM 43.0 °F 40.3 °F 14.0 °F 31% 29.94 in 10.0 mi SW 4.6 mph - N/A   Clear